ROA3101 SACO-SABE

Flight info

Callsign ROA3101
Flight time 1h 1m
Altitude 29000
Route UTRAX1C UTRAX UW24 SNT SNT8Q
Aircraft B738/M-SDE2E3FGHIRWXY/LB1

Departure

Time 2026-04-30 19:19
Airport Ingeniero Aeronáutico Ambrosio L.V. Taravella International Airport (SACO)

Arrival

Time 2026-04-30 20:21
Airport Aeroparque Jorge Newbery (SABE)
Time Latitude Longitude Altitude Speed Heading
2026-04-30 19:00 -31.31502 -64.21187 1574 ft 0 kts 269°
2026-04-30 19:05 -31.31501 -64.21175 1574 ft 3 kts 268°
2026-04-30 19:06 -31.31499 -64.21129 1574 ft 3 kts 263°
2026-04-30 19:06 -31.31496 -64.21106 1574 ft 3 kts 259°
2026-04-30 19:06 -31.31486 -64.21066 1574 ft 2 kts 244°
2026-04-30 19:07 -31.31468 -64.21038 1574 ft 2 kts 215°
2026-04-30 19:07 -31.31455 -64.21030 1574 ft 2 kts 199°
2026-04-30 19:08 -31.31432 -64.21024 1574 ft 1 kts 185°
2026-04-30 19:08 -31.31415 -64.21023 1574 ft 1 kts 181°
2026-04-30 19:08 -31.31407 -64.21023 1574 ft 1 kts 180°
2026-04-30 19:09 -31.31406 -64.21023 1574 ft 0 kts 180°
2026-04-30 19:12 -31.31408 -64.21023 1574 ft 1 kts 180°
2026-04-30 19:13 -31.31467 -64.21027 1574 ft 7 kts 188°
2026-04-30 19:13 -31.31612 -64.21030 1574 ft 14 kts 179°
2026-04-30 19:13 -31.31716 -64.21028 1574 ft 16 kts 179°
2026-04-30 19:14 -31.31839 -64.21025 1574 ft 19 kts 179°
2026-04-30 19:14 -31.31970 -64.21023 1574 ft 18 kts 180°
2026-04-30 19:14 -31.32096 -64.21023 1574 ft 18 kts 178°
2026-04-30 19:14 -31.32209 -64.21017 1574 ft 2 kts 180°
2026-04-30 19:15 -31.32225 -64.21018 1574 ft 2 kts 180°
2026-04-30 19:15 -31.32265 -64.21019 1574 ft 5 kts 182°
2026-04-30 19:15 -31.32332 -64.21022 1574 ft 14 kts 182°
2026-04-30 19:16 -31.32402 -64.21020 1574 ft 2 kts 145°
2026-04-30 19:16 -31.32408 -64.21007 1574 ft 0 kts 120°
2026-04-30 19:17 -31.32411 -64.21001 1574 ft 2 kts 120°
2026-04-30 19:17 -31.32430 -64.20963 1574 ft 4 kts 120°
2026-04-30 19:17 -31.32439 -64.20900 1574 ft 10 kts 88°
2026-04-30 19:18 -31.32392 -64.20812 1573 ft 0 kts 357°
2026-04-30 19:18 -31.32356 -64.20813 1573 ft 12 kts 359°
2026-04-30 19:19 -31.32134 -64.20816 1574 ft 65 kts 359°
2026-04-30 19:19 -31.31449 -64.20826 1575 ft 130 kts 359°
2026-04-30 19:19 -31.29245 -64.20892 2694 ft 167 kts
2026-04-30 19:20 -31.28098 -64.20401 3204 ft 189 kts 35°
2026-04-30 19:20 -31.27254 -64.19279 4189 ft 183 kts 54°
2026-04-30 19:20 -31.25938 -64.16328 5236 ft 216 kts 59°
2026-04-30 19:21 -31.25247 -64.14789 6067 ft 209 kts 49°
2026-04-30 19:21 -31.23784 -64.11821 7335 ft 239 kts 89°
2026-04-30 19:22 -31.25538 -64.08201 8503 ft 275 kts 122°
2026-04-30 19:22 -31.29082 -64.02670 10351 ft 308 kts 133°
2026-04-30 19:23 -31.34328 -63.96955 11333 ft 366 kts 135°
2026-04-30 19:24 -31.38057 -63.92837 12795 ft 371 kts 136°
2026-04-30 19:24 -31.39935 -63.90741 13531 ft 374 kts 136°
2026-04-30 19:24 -31.43696 -63.86525 14826 ft 380 kts 136°
2026-04-30 19:25 -31.49515 -63.80000 16709 ft 392 kts 136°
2026-04-30 19:26 -31.53497 -63.75549 17964 ft 399 kts 136°
2026-04-30 19:26 -31.57549 -63.71010 19073 ft 406 kts 136°
2026-04-30 19:26 -31.59601 -63.68709 19608 ft 410 kts 136°
2026-04-30 19:27 -31.63769 -63.64034 20696 ft 418 kts 136°
2026-04-30 19:27 -31.68008 -63.59342 21724 ft 426 kts 136°
2026-04-30 19:28 -31.70178 -63.56949 22232 ft 430 kts 136°
2026-04-30 19:28 -31.74567 -63.52095 23272 ft 437 kts 136°
2026-04-30 19:29 -31.79026 -63.47149 24149 ft 444 kts 136°
2026-04-30 19:29 -31.81275 -63.44651 24592 ft 446 kts 136°
2026-04-30 19:30 -31.88021 -63.37148 26282 ft 442 kts 137°
2026-04-30 19:30 -31.92092 -63.31798 27351 ft 442 kts 128°
2026-04-30 19:31 -31.95815 -63.26065 28464 ft 440 kts 127°
2026-04-30 19:31 -31.97665 -63.23201 28910 ft 441 kts 127°
2026-04-30 19:31 -32.01442 -63.17454 28887 ft 442 kts 128°
2026-04-30 19:32 -32.05221 -63.11797 28894 ft 438 kts 128°
2026-04-30 19:32 -32.09029 -63.06118 28903 ft 440 kts 128°
2026-04-30 19:33 -32.12833 -63.00439 28909 ft 441 kts 128°
2026-04-30 19:33 -32.16612 -62.94785 28899 ft 442 kts 128°
2026-04-30 19:34 -32.20407 -62.89098 28899 ft 441 kts 128°
2026-04-30 19:35 -32.26083 -62.80574 28894 ft 439 kts 128°
2026-04-30 19:35 -32.29852 -62.74903 28895 ft 438 kts 128°
2026-04-30 19:36 -32.33612 -62.69239 28886 ft 438 kts 128°
2026-04-30 19:36 -32.39220 -62.60772 28901 ft 438 kts 128°
2026-04-30 19:37 -32.42976 -62.55091 28894 ft 439 kts 128°
2026-04-30 19:37 -32.46734 -62.49400 28896 ft 439 kts 128°
2026-04-30 19:38 -32.50497 -62.43691 28897 ft 440 kts 128°
2026-04-30 19:38 -32.54262 -62.37971 28891 ft 440 kts 128°
2026-04-30 19:39 -32.58002 -62.32279 28891 ft 441 kts 128°
2026-04-30 19:39 -32.61759 -62.26553 28887 ft 441 kts 128°
2026-04-30 19:40 -32.65526 -62.20801 28886 ft 441 kts 128°
2026-04-30 19:40 -32.69283 -62.15042 28884 ft 441 kts 127°
2026-04-30 19:41 -32.72827 -62.09095 28893 ft 441 kts 124°
2026-04-30 19:41 -32.76256 -62.03117 28886 ft 441 kts 124°
2026-04-30 19:42 -32.79727 -61.97107 28889 ft 441 kts 124°
2026-04-30 19:42 -32.83215 -61.91109 28891 ft 441 kts 125°
2026-04-30 19:43 -32.86705 -61.85116 28895 ft 441 kts 125°
2026-04-30 19:44 -32.91951 -61.76092 28897 ft 442 kts 125°
2026-04-30 19:44 -32.95421 -61.70110 28894 ft 442 kts 125°
2026-04-30 19:45 -32.98941 -61.64030 28898 ft 443 kts 125°
2026-04-30 19:45 -33.02431 -61.57992 28897 ft 443 kts 125°
2026-04-30 19:46 -33.05924 -61.51940 28905 ft 443 kts 125°
2026-04-30 19:46 -33.09387 -61.45930 28903 ft 443 kts 125°
2026-04-30 19:47 -33.12877 -61.39863 28904 ft 443 kts 125°
2026-04-30 19:47 -33.16360 -61.33798 28908 ft 443 kts 125°
2026-04-30 19:48 -33.19838 -61.27730 28911 ft 443 kts 125°
2026-04-30 19:48 -33.23319 -61.21650 28913 ft 443 kts 125°
2026-04-30 19:49 -33.26791 -61.15574 28914 ft 444 kts 125°
2026-04-30 19:49 -33.31993 -61.06401 28914 ft 444 kts 124°
2026-04-30 19:50 -33.35440 -61.00276 28917 ft 445 kts 124°
2026-04-30 19:50 -33.38894 -60.94138 28918 ft 445 kts 124°
2026-04-30 19:51 -33.42350 -60.87988 28921 ft 445 kts 124°
2026-04-30 19:51 -33.45779 -60.81872 28918 ft 445 kts 124°
2026-04-30 19:52 -33.49205 -60.75752 28907 ft 436 kts 124°
2026-04-30 19:52 -33.52560 -60.69748 28925 ft 433 kts 124°
2026-04-30 19:53 -33.55919 -60.63728 28534 ft 434 kts 124°
2026-04-30 19:53 -33.57585 -60.60739 28192 ft 430 kts 124°
2026-04-30 19:53 -33.59239 -60.57768 27833 ft 426 kts 124°
2026-04-30 19:54 -33.60878 -60.54821 27462 ft 423 kts 124°
2026-04-30 19:54 -33.62507 -60.51890 27100 ft 421 kts 125°
2026-04-30 19:54 -33.64126 -60.48975 26733 ft 418 kts 125°
2026-04-30 19:54 -33.65712 -60.46117 26378 ft 416 kts 125°
2026-04-30 19:55 -33.67309 -60.43237 26014 ft 414 kts 125°
2026-04-30 19:55 -33.68902 -60.40364 25659 ft 412 kts 125°
2026-04-30 19:55 -33.70487 -60.37501 25290 ft 410 kts 125°
2026-04-30 19:55 -33.72062 -60.34655 24929 ft 409 kts 125°
2026-04-30 19:56 -33.73637 -60.31806 24565 ft 408 kts 125°
2026-04-30 19:56 -33.75204 -60.28968 24186 ft 408 kts 125°
2026-04-30 19:56 -33.76770 -60.26132 23819 ft 407 kts 125°
2026-04-30 19:56 -33.78312 -60.23334 23440 ft 406 kts 125°
2026-04-30 19:57 -33.79868 -60.20511 23037 ft 405 kts 125°
2026-04-30 19:57 -33.81417 -60.17698 22655 ft 403 kts 125°
2026-04-30 19:57 -33.82958 -60.14899 22288 ft 400 kts 125°
2026-04-30 19:57 -33.84494 -60.12109 21933 ft 398 kts 125°
2026-04-30 19:58 -33.86023 -60.09361 21619 ft 394 kts 126°
2026-04-30 19:58 -33.87550 -60.06631 21264 ft 392 kts 126°
2026-04-30 19:58 -33.89068 -60.03922 20923 ft 390 kts 126°
2026-04-30 19:58 -33.90578 -60.01224 20573 ft 388 kts 126°
2026-04-30 19:59 -33.92084 -59.98530 20220 ft 386 kts 125°
2026-04-30 19:59 -33.93558 -59.95887 19877 ft 385 kts 125°
2026-04-30 19:59 -33.96529 -59.90552 19162 ft 383 kts 125°
2026-04-30 20:00 -33.98009 -59.87892 18810 ft 382 kts 125°
2026-04-30 20:00 -33.99482 -59.85240 18453 ft 381 kts 125°
2026-04-30 20:00 -34.00952 -59.82593 18073 ft 380 kts 125°
2026-04-30 20:00 -34.02413 -59.79959 17679 ft 375 kts 125°
2026-04-30 20:01 -34.05238 -59.74860 16971 ft 356 kts 125°
2026-04-30 20:01 -34.06598 -59.72402 16624 ft 348 kts 125°
2026-04-30 20:01 -34.07907 -59.70036 16321 ft 340 kts 125°
2026-04-30 20:02 -34.10477 -59.65386 15699 ft 327 kts 125°
2026-04-30 20:02 -34.11736 -59.63107 15400 ft 325 kts 125°
2026-04-30 20:03 -34.14268 -59.58521 14808 ft 338 kts 124°
2026-04-30 20:03 -34.15576 -59.56147 14466 ft 339 kts 124°
2026-04-30 20:03 -34.16867 -59.53803 14147 ft 331 kts 124°
2026-04-30 20:03 -34.18128 -59.51511 13829 ft 324 kts 124°
2026-04-30 20:04 -34.19361 -59.49269 13494 ft 317 kts 124°
2026-04-30 20:04 -34.20569 -59.47073 13166 ft 311 kts 124°
2026-04-30 20:04 -34.21753 -59.44904 12868 ft 308 kts 121°
2026-04-30 20:05 -34.22879 -59.40042 12517 ft 308 kts 98°
2026-04-30 20:05 -34.23262 -59.37453 12277 ft 324 kts 98°
2026-04-30 20:05 -34.24062 -59.32064 11625 ft 325 kts 98°
2026-04-30 20:06 -34.24465 -59.29379 11304 ft 324 kts 98°
2026-04-30 20:06 -34.24869 -59.26707 10984 ft 323 kts 97°
2026-04-30 20:06 -34.25272 -59.24046 10657 ft 322 kts 97°
2026-04-30 20:06 -34.25674 -59.21394 10340 ft 320 kts 97°
2026-04-30 20:07 -34.26075 -59.18753 10099 ft 316 kts 97°
2026-04-30 20:07 -34.26467 -59.16165 9918 ft 311 kts 97°
2026-04-30 20:07 -34.27222 -59.11185 9322 ft 298 kts 97°
2026-04-30 20:08 -34.27589 -59.08752 8983 ft 291 kts 97°
2026-04-30 20:08 -34.27947 -59.06380 8692 ft 283 kts 97°
2026-04-30 20:08 -34.28295 -59.04068 8404 ft 276 kts 97°
2026-04-30 20:08 -34.28635 -59.01808 8136 ft 269 kts 97°
2026-04-30 20:09 -34.28966 -58.99596 7881 ft 266 kts 97°
2026-04-30 20:09 -34.29296 -58.97383 7643 ft 269 kts 97°
2026-04-30 20:09 -34.29936 -58.93118 7124 ft 247 kts 96°
2026-04-30 20:10 -34.30519 -58.89216 6639 ft 225 kts 96°
2026-04-30 20:10 -34.30792 -58.87381 6413 ft 218 kts 96°
2026-04-30 20:10 -34.31055 -58.85615 6206 ft 208 kts 96°
2026-04-30 20:11 -34.31546 -58.82316 5793 ft 193 kts 96°
2026-04-30 20:11 -34.31781 -58.80727 5593 ft 192 kts 95°
2026-04-30 20:11 -34.32015 -58.79143 5400 ft 191 kts 95°
2026-04-30 20:12 -34.32602 -58.76053 4992 ft 195 kts 121°
2026-04-30 20:12 -34.33623 -58.75022 4827 ft 196 kts 163°
2026-04-30 20:12 -34.34966 -58.74648 4669 ft 201 kts 163°
2026-04-30 20:13 -34.36264 -58.74093 4462 ft 194 kts 158°
2026-04-30 20:13 -34.37495 -58.73481 4282 ft 189 kts 156°
2026-04-30 20:13 -34.38681 -58.72870 4148 ft 180 kts 156°
2026-04-30 20:13 -34.39818 -58.72280 3965 ft 175 kts 156°
2026-04-30 20:14 -34.40922 -58.71706 3851 ft 173 kts 156°
2026-04-30 20:14 -34.42035 -58.71127 3737 ft 173 kts 156°
2026-04-30 20:14 -34.43120 -58.70561 3708 ft 171 kts 156°
2026-04-30 20:14 -34.44129 -58.69779 3638 ft 174 kts 128°
2026-04-30 20:15 -34.44739 -58.68549 3588 ft 170 kts 114°
2026-04-30 20:15 -34.45292 -58.67298 3531 ft 170 kts 112°
2026-04-30 20:15 -34.45698 -58.65967 3453 ft 168 kts 103°
2026-04-30 20:15 -34.46055 -58.64621 3372 ft 167 kts 103°
2026-04-30 20:16 -34.46410 -58.63275 3212 ft 170 kts 103°
2026-04-30 20:16 -34.46766 -58.61915 2920 ft 167 kts 103°
2026-04-30 20:16 -34.47112 -58.60597 2646 ft 161 kts 103°
2026-04-30 20:16 -34.47442 -58.59321 2377 ft 158 kts 103°
2026-04-30 20:17 -34.47766 -58.58050 2102 ft 158 kts 103°
2026-04-30 20:17 -34.48090 -58.56787 1826 ft 156 kts 103°
2026-04-30 20:17 -34.48502 -58.55562 1660 ft 157 kts 118°
2026-04-30 20:17 -34.49105 -58.54491 1697 ft 158 kts 120°
2026-04-30 20:18 -34.49567 -58.53284 1670 ft 156 kts 105°
2026-04-30 20:18 -34.50067 -58.52104 1668 ft 160 kts 120°
2026-04-30 20:18 -34.50698 -58.50979 1646 ft 163 kts 121°
2026-04-30 20:18 -34.51339 -58.49832 1478 ft 164 kts 121°
2026-04-30 20:19 -34.51966 -58.48703 1260 ft 159 kts 121°
2026-04-30 20:19 -34.52370 -58.47973 1114 ft 156 kts 121°
2026-04-30 20:19 -34.53174 -58.46523 827 ft 155 kts 121°
2026-04-30 20:19 -34.53770 -58.45450 646 ft 153 kts 122°
2026-04-30 20:20 -34.54362 -58.44388 405 ft 149 kts 124°
2026-04-30 20:20 -34.54926 -58.43369 172 ft 140 kts 122°
2026-04-30 20:20 -34.55440 -58.42449 29 ft 124 kts 123°
2026-04-30 20:20 -34.55721 -58.41937 30 ft 91 kts 124°
2026-04-30 20:21 -34.55966 -58.41498 27 ft 41 kts 124°
2026-04-30 20:21 -34.56006 -58.41355 31 ft 3 kts 46°
2026-04-30 20:21 -34.55987 -58.41338 28 ft 3 kts 37°
2026-04-30 20:21 -34.55970 -58.41322 29 ft 0 kts 37°
2026-04-30 20:22 -34.55926 -58.41301 30 ft 12 kts
2026-04-30 20:22 -34.55881 -58.41287 29 ft 0 kts 28°
2026-04-30 20:23 -34.55861 -58.41277 28 ft 0 kts 12°
2026-04-30 20:23 -34.55826 -58.41298 26 ft 8 kts 311°
2026-04-30 20:23 -34.55782 -58.41382 28 ft 7 kts 302°
2026-04-30 20:23 -34.55769 -58.41406 27 ft 4 kts 303°
2026-04-30 20:24 -34.55760 -58.41417 28 ft 0 kts 323°
2026-04-30 20:24 -34.55759 -58.41417 28 ft 0 kts 330°
2026-04-30 20:25 -34.55758 -58.41418 28 ft 1 kts 332°
2026-04-30 20:25 -34.55744 -58.41416 28 ft 3 kts 13°
2026-04-30 20:26 -34.55722 -58.41401 26 ft 0 kts 32°